SCP
0 0 0 0 0 0 0 0 0 0 0 0 0 0 0 0 0 0 0 0 0 1 1 1 1 1 1 0 0 0 0 0 0 1 1 1 2 2 2 2 2 1 1
0 0 0 0 0 0 0 0 0 0 0 0 0 0 0 0 0 0 0 0 1 1 1 1 1 1 1 0 0 0 0 0 0 1 1 1 1 1 2 2 1 1 1
0 0 0 0 0 0 0 0 0 0 0 0 0 0 0 0 0 0 0 1 1 1 1 1 1 1 1 0 0 0 0 0 0 0 0 0 1 1 1 1 1 1 1
0 0 0 0 0 0 0 0 0 0 0 0 0 0 0 0 0 0 0 0 1 1 1 1 1 1 1 1 0 0 0 0 0 0 0 0 0 1 1 1 1 1 1
0 0 0 0 0 0 0 0 0 0 0 0 0 0 0 0 0 0 0 0 0 1 1 1 1 1 1 0 0 0 0 0 0 0 0 0 0 0 0 1 1 1 1
0 0 0 0 0 0 0 0 0 0 0 0 0 0 0 0 0 0 0 0 0 1 1 1 1 1 1 1 0 0 0 0 0 0 0 0 0 0 0 1 1 1 2
0 0 0 0 0 0 0 0 0 0 0 0 0 0 0 0 0 0 0 0 0 1 1 1 1 1 1 1 1 0 0 0 0 0 0 0 0 0 0 1 1 1 2
0 0 0 0 0 0 0 0 0 0 0 0 0 0 0 0 0 0 0 0 0 1 1 1 0 0 0 0 0 0 0 0 0 1 1 1 0 0 0 0 1 1 2
0 0 0 0 0 0 0 0 0 0 0 0 0 0 0 0 0 0 0 0 0 0 0 0 0 0 0 0 0 0 0 0 0 1 1 1 1 0 0 0 1 1 1
0 0 0 0 0 0 0 0 0 0 0 0 0 0 0 0 0 0 0 0 0 0 0 0 0 0 0 0 0 0 0 0 0 1 1 1 1 1 1 0 0 1 1
0 0 0 0 0 0 0 0 0 0 0 0 0 0 0 0 0 0 0 0 0 0 0 0 0 0 0 0 0 0 0 0 0 0 1 1 0 0 1 1 1 0 0
0 0 0 0 0 0 0 0 0 0 0 0 0 0 0 0 0 0 0 0 0 0 0 0 0 0 0 0 0 0 0 0 0 0 0 0 0 0 1 1 1 1 1
0 0 0 0 0 0 0 0 0 0 0 0 0 0 0 0 0 0 0 0 0 0 0 0 0 0 0 0 0 0 0 0 0 0 0 0 0 0 1 1 1 1 1
0 0 0 0 0 0 0 0 0 0 0 0 0 0 0 0 0 0 0 0 0 0 0 0 0 0 0 0 0 0 0 0 0 0 0 0 0 0 1 1 1 0 1
0 0 0 0 0 0 0 0 0 0 0 0 0 0 0 0 0 0 0 0 0 0 0 0 0 0 0 0 0 0 0 0 0 0 0 0 0 0 1 1 1 0 0
0 0 0 0 0 0 0 0 0 0 0 0 0 0 0 0 0 0 0 0 0 0 0 0 0 0 0 0 0 0 0 0 0 0 0 0 0 0 0 1 1 0 0
0 0 0 0 0 0 0 0 0 0 0 0 0 0 0 0 0 0 0 0 0 0 0 0 0 0 0 0 0 0 0 0 0 0 0 0 0 0 0 0 0 0 0
0 0 0 0 0 0 0 0 0 0 0 0 0 0 0 0 0 0 0 0 0 0 0 0 0 0 0 0 0 0 0 0 0 0 0 0 0 0 0 0 0 0 0
0 0 0 0 0 0 0 0 0 0 0 0 0 0 0 0 0 0 0 0 0 0 0 0 0 0 0 0 0 0 0 0 0 0 0 0 0 0 0 0 0 0 0
0 0 0 0 0 0 0 0 0 0 0 0 0 0 0 0 0 0 0 0 0 0 0 0 0 0 0 0 0 0 0 0 0 0 0 0 0 0 0 0 0 0 0
0 0 0 0 0 0 0 0 0 0 0 0 0 0 0 0 0 0 0 0 0 0 0 0 0 0 0 0 0 0 0 0 0 0 0 0 0 0 0 0 0 0 0
0 0 0 0 0 0 0 0 0 0 0 0 0 0 0 0 0 0 0 0 0 0 0 0 0 0 0 0 0 0 0 0 0 0 0 0 0 0 0 0 0 0 0
0 0 0 0 0 0 0 0 0 0 0 0 0 0 0 0 0 0 0 0 0 0 0 0 0 0 0 0 0 0 0 0 0 0 0 0 0 0 0 0 0 0 0
0 0 0 0 0 0 0 0 0 0 0 0 0 0 0 0 0 0 0 0 0 0 0 0 0 0 0 0 0 0 0 0 0 0 0 0 0 0 0 0 0 0 0
0 0 0 0 0 0 0 0 0 0 0 0 0 0 0 0 0 0 0 0 0 0 0 0 0 0 0 0 0 0 0 0 0 0 0 0 0 0 0 0 0 0 0
0 0 0 0 0 0 0 0 0 0 0 0 0 0 0 0 0 0 0 0 0 0 0 0 0 0 0 0 0 0 0 0 0 0 0 0 0 0 0 0 0 0 0
Wind_Speed
2 1 1 1 2 1 2 2 2 3 3 3 2 3 3 3 2 1 1 4 5 4 5 5 5 5 5 6 6 7 7 8 9 10 10 10 10 11 11 11 10 10 10
2 2 2 2 2 2 2 2 2 2 2 2 3 3 3 3 2 2 1 2 3 3 4 5 5 5 5 6 6 7 7 8 9 10 10 10 10 11 11 11 11 10 9
3 3 3 3 2 2 3 3 3 3 3 3 3 3 3 3 2 2 2 1 1 3 3 4 4 5 5 5 6 7 7 7 8 9 10 10 10 11 11 11 10 9 9
4 3 3 3 3 3 3 3 3 3 3 3 2 2 2 2 3 2 2 2 2 2 3 4 4 4 5 5 6 6 6 7 7 8 9 9 10 10 10 11 11 11 11
5 4 3 2 3 3 3 3 3 2 3 3 2 3 3 3 3 3 3 2 2 2 2 3 4 5 5 5 5 6 7 7 7 7 8 9 9 9 10 11 11 11 11
4 4 3 4 4 3 3 3 3 3 2 2 4 4 3 3 3 3 3 2 2 2 2 3 3 4 6 6 6 6 7 7 7 7 7 8 9 9 9 10 11 11 11
4 4 3 4 4 3 3 3 3 4 4 2 4 4 4 4 4 4 3 3 3 3 3 3 2 2 3 6 6 7 7 7 6 6 7 7 8 8 8 9 9 10 10
4 3 4 3 3 3 4 4 3 3 3 3 3 3 3 5 4 5 4 4 4 3 3 3 3 3 2 2 4 7 7 7 7 6 6 7 7 8 7 8 8 8 9
4 4 4 3 3 3 3 3 3 3 3 3 3 3 3 1 2 4 4 4 4 3 3 2 3 3 3 3 3 5 7 7 7 7 6 6 7 7 7 7 7 7 7
4 4 4 4 4 3 3 3 3 2 3 2 2 2 2 3 3 1 3 4 4 4 4 4 4 3 3 3 4 6 7 7 8 7 7 6 6 6 6 6 6 6 6
3 3 4 4 4 3 3 4 4 4 3 2 2 2 3 3 3 3 1 3 3 3 3 3 3 3 3 3 2 5 7 7 7 7 7 7 6 5 5 5 5 5 5
2 3 3 3 3 3 3 3 3 4 3 3 3 3 2 2 2 2 2 1 2 2 3 3 3 2 2 3 4 7 7 7 7 7 7 7 7 6 5 5 4 4 4
1 1 2 2 2 2 3 3 4 4 4 4 3 2 2 2 1 2 3 2 1 2 3 3 3 2 3 3 3 6 6 6 7 7 7 7 7 7 6 5 5 4 4
1 1 3 3 3 3 3 3 3 3 4 4 4 3 3 2 2 2 3 3 2 2 3 3 3 3 2 2 3 5 4 6 6 6 7 7 7 7 7 6 6 6 5
2 2 3 3 3 4 4 4 4 3 4 4 4 4 4 3 3 2 2 2 4 2 1 3 2 3 3 2 3 2 3 5 6 6 6 6 6 6 6 5 6 5 5
2 3 3 3 3 4 4 4 4 3 5 4 3 5 4 3 3 3 3 3 3 3 1 1 1 2 3 3 4 3 2 5 6 6 6 6 6 5 5 5 5 5 5
3 3 3 3 3 4 4 4 4 4 5 5 4 5 5 4 4 3 3 3 3 3 2 1 1 2 3 4 4 3 2 2 3 6 6 6 6 6 6 5 5 5 5
3 4 4 4 4 4 4 4 4 4 5 5 4 5 4 4 5 4 4 4 3 2 2 1 2 3 3 3 3 3 3 3 2 5 6 6 6 6 6 6 6 5 5
4 4 5 5 4 4 4 3 4 4 4 4 3 4 3 4 4 3 4 3 2 3 2 2 1 2 2 3 3 3 4 3 3 5 5 6 6 7 7 7 6 6 6
5 5 5 4 4 4 4 4 4 5 4 4 3 3 3 3 3 2 3 3 3 3 3 2 2 2 2 3 2 3 4 4 3 4 5 5 6 7 7 8 7 7 6
6 5 5 4 3 3 3 4 4 5 4 4 3 3 3 4 5 3 3 2 3 3 2 2 2 2 3 3 3 2 2 3 3 3 3 3 3 3 4 6 7 8 7
5 5 5 4 3 2 5 7 6 4 4 4 3 2 3 4 6 7 7 5 4 3 2 2 1 1 2 2 2 2 2 2 3 3 3 3 2 3 3 2 6 7 7
5 5 4 4 3 3 5 7 7 5 4 3 2 2 2 3 4 3 5 7 5 4 3 3 2 1 2 2 1 2 1 1 2 3 2 3 3 3 3 4 7 8 8
5 4 4 4 3 2 4 6 7 5 4 3 2 3 3 2 2 3 3 4 3 3 2 1 2 2 2 2 2 1 1 1 2 2 1 1 3 3 4 3 6 8 8
4 4 4 4 4 2 4 6 7 4 3 2 1 2 3 2 2 4 4 3 3 3 3 3 2 2 2 2 1 1 2 2 2 3 2 1 2 3 3 3 4 7 8
4 4 4 3 4 3 4 6 7 3 3 2 1 1 2 2 2 3 3 2 1 2 2 3 4 5 3 3 3 1 1 1 1 3 2 1 2 3 4 3 3 4 5
Wind_Direction
74 44 20 14 4 2 11 20 19 35 41 39 55 85 87 98 109 109 88 115 112 110 104 96 84 77 70 65 64 60 55 53 49 45 44 46 47 49 50 50 55 60 67
73 60 41 26 19 17 30 42 34 47 49 51 46 64 81 89 99 109 98 93 100 102 98 94 85 78 73 71 65 61 59 56 52 49 46 46 47 48 50 48 52 64 76
69 66 52 33 15 26 42 46 36 40 50 55 44 46 68 75 82 89 96 83 62 73 86 84 76 75 75 75 67 63 61 57 55 50 48 48 49 49 47 45 56 67 78
70 65 53 30 20 34 39 52 42 47 44 48 45 34 44 60 63 69 73 75 56 51 55 65 66 68 67 68 66 63 60 57 54 51 50 51 49 51 47 49 57 69 78
62 66 52 29 31 39 32 46 49 57 55 50 59 49 34 41 46 62 65 70 70 66 58 51 56 58 57 55 58 58 58 59 56 54 53 55 55 55 51 54 55 68 78
55 61 54 35 39 45 35 42 55 48 55 59 67 57 36 28 36 44 50 54 55 63 64 53 39 43 50 47 49 52 56 57 56 57 56 58 58 56 54 58 59 67 79
57 60 58 42 43 51 43 46 60 54 39 43 65 39 17 22 34 30 29 41 42 48 60 59 46 41 36 40 41 45 47 50 54 58 59 59 60 57 57 61 65 68 78
57 66 65 55 47 55 46 42 56 63 36 39 90 78 31 7 3 14 22 38 32 39 52 61 53 49 47 37 31 37 35 36 47 56 62 63 62 59 58 61 67 72 78
60 63 66 66 56 62 60 50 60 78 64 30 60 118 120 144 340 353 15 24 24 36 38 50 53 44 52 45 31 28 36 33 41 51 57 61 63 60 59 63 66 74 80
55 61 70 70 65 64 63 53 63 74 88 57 29 49 112 143 123 31 356 5 24 34 34 49 48 44 46 43 37 39 40 37 38 46 50 55 63 61 59 61 64 70 81
42 59 68 70 67 63 64 60 59 63 75 88 72 64 65 61 82 111 62 356 12 11 24 37 41 39 37 37 34 37 39 37 38 40 45 48 57 65 64 65 63 68 77
28 46 69 69 71 67 64 66 67 69 73 78 74 73 90 96 104 111 117 77 37 354 12 24 33 29 29 29 34 39 41 39 38 39 41 41 44 52 61 62 63 66 70
52 50 73 71 65 70 72 70 67 64 66 73 71 69 69 79 120 120 116 115 67 353 5 7 5 16 27 24 21 32 35 40 40 40 38 39 41 43 48 50 50 47 51
169 130 98 81 69 70 74 72 68 63 66 67 68 68 64 48 63 96 125 124 84 21 15 351 347 6 8 15 19 29 20 33 38 38 35 34 38 41 42 43 38 34 31
150 115 100 87 71 69 74 76 69 63 68 64 63 63 61 46 50 59 85 117 127 107 6 333 345 344 350 12 19 20 14 18 28 31 30 29 31 36 36 38 33 25 18
134 117 101 94 78 69 72 73 69 64 69 58 63 66 56 45 48 50 64 69 91 126 125 310 319 322 350 15 19 9 3 14 15 19 22 22 26 27 25 28 28 22 12
133 124 121 106 88 76 76 78 73 71 73 61 58 68 59 54 55 46 55 63 64 90 106 335 338 344 6 9 358 358 6 6 353 5 6 9 13 15 14 12 13 12 6
133 127 119 108 101 89 81 83 81 79 82 75 68 72 60 64 57 48 56 57 55 68 106 70 356 356 1 350 353 1 1 7 354 2 1 5 7 8 8 6 1 357 354
120 114 116 117 112 103 95 93 96 90 87 87 88 89 79 77 65 53 57 54 45 51 66 85 16 353 347 350 2 356 3 357 356 6 8 13 11 11 9 6 2 355 350
126 122 120 119 116 107 103 101 96 92 85 75 75 86 91 97 102 90 71 62 67 60 55 61 31 357 346 338 15 7 356 353 353 3 8 11 10 13 11 9 4 1 356
130 128 120 111 109 112 120 115 106 103 98 85 65 62 74 87 92 93 95 99 91 81 65 57 30 8 353 357 356 340 350 335 337 357 354 354 358 0 354 358 1 356 355
124 122 123 121 114 113 124 123 121 110 103 100 89 65 63 59 65 67 71 83 105 112 112 99 57 16 312 312 323 342 1 10 337 336 358 331 353 347 334 340 351 356 360
133 128 130 126 122 129 127 121 122 117 112 116 117 103 86 69 65 60 50 49 47 54 100 143 147 220 247 254 295 348 352 340 280 296 347 320 335 333 325 345 354 3 2
146 146 147 145 136 150 140 128 122 107 104 110 123 136 124 98 85 94 74 53 34 19 24 91 173 225 231 230 205 218 250 296 301 316 16 326 323 312 315 323 343 358 356
152 154 154 154 151 169 157 141 127 111 105 99 101 125 132 123 119 112 95 72 31 354 1 26 24 4 354 3 47 59 23 32 343 318 345 4 312 312 309 309 327 348 345
159 152 152 164 166 181 183 158 141 125 123 124 89 80 162 160 144 124 118 111 44 314 336 355 3 360 2 358 6 98 155 124 318 303 312 353 320 339 326 306 314 328 330